• In Hungary
  • List of Countries
  • For 7 days
  • Water Temperature
  • Satellite Maps
  • Weather Map
  • News
  • Weather Widgets
  • user-avatar
    Login

    Hourly Weather Dreieich

    Today, 21 February, Wednesday

    Time Temperature Precipitation Wind Pressure Humidity
    00:00 -2°C° 0 mm 2 mps 749 mmHg 76%
    01:00 -3°C° 0 mm 2 mps 749 mmHg 77%
    02:00 -3°C° 0 mm 2 mps 749 mmHg 78%
    03:00 -3°C° 0 mm 2 mps 749 mmHg 78%
    04:00 -3°C° 0 mm 2 mps 749 mmHg 79%
    05:00 -3°C° 0 mm 2 mps 749 mmHg 79%
    06:00 -3°C° 0 mm 2 mps 750 mmHg 79%
    07:00 -4°C° 0 mm 3 mps 750 mmHg 81%
    08:00 -2°C° 0 mm 3 mps 750 mmHg 75%
    09:00 -1°C° 0 mm 3 mps 750 mmHg 70%
    10:00 -1°C° 0 mm 4 mps 750 mmHg 64%
    11:00 0°C° 0 mm 4 mps 750 mmHg 59%
    12:00 +1°C° 0 mm 4 mps 750 mmHg 54%
    13:00 +1°C° 0 mm 4 mps 750 mmHg 50%
    14:00 +1°C° 0 mm 4 mps 750 mmHg 51%
    15:00 +1°C° 0 mm 4 mps 750 mmHg 51%
    16:00 +3°C° 0 mm 4 mps 749 mmHg 51%
    17:00 0°C° 0 mm 4 mps 749 mmHg 56%
    18:00 -1°C° 0 mm 4 mps 749 mmHg 61%
    19:00 -2°C° 0 mm 4 mps 749 mmHg 66%
    20:00 -2°C° 0 mm 4 mps 750 mmHg 67%
    21:00 -3°C° 0 mm 4 mps 750 mmHg 68%
    22:00 -3°C° 0 mm 4 mps 750 mmHg 69%
    23:00 -3°C° 0 mm 4 mps 750 mmHg 69%

    Tomorrow, 22 February, Thursday

    Time Temperature Precipitation Wind Pressure Humidity
    00:00 -3°C° 0 mm 4 mps 750 mmHg 69%
    01:00 -3°C° 0 mm 4 mps 750 mmHg 70%
    02:00 -4°C° 0 mm 4 mps 750 mmHg 68%
    03:00 -4°C° 0 mm 4 mps 749 mmHg 67%
    04:00 -4°C° 0 mm 4 mps 749 mmHg 66%
    05:00 -4°C° 0 mm 4 mps 749 mmHg 64%
    06:00 -4°C° 0 mm 4 mps 749 mmHg 61%
    07:00 -4°C° 0 mm 4 mps 749 mmHg 58%
    08:00 -4°C° 0 mm 5 mps 749 mmHg 53%
    09:00 -2°C° 0 mm 5 mps 749 mmHg 48%
    10:00 -3°C° 0 mm 6 mps 749 mmHg 43%
    11:00 -2°C° 0 mm 6 mps 749 mmHg 42%
    12:00 -1°C° 0 mm 6 mps 749 mmHg 40%
    13:00 +1°C° 0 mm 6 mps 749 mmHg 38%
    14:00 +1°C° 0 mm 6 mps 749 mmHg 39%
    15:00 -1°C° 0 mm 6 mps 749 mmHg 40%
    16:00 -1°C° 0 mm 6 mps 748 mmHg 41%
    17:00 -1°C° 0 mm 5 mps 748 mmHg 46%
    18:00 -2°C° 0 mm 5 mps 749 mmHg 50%
    19:00 -4°C° 0 mm 5 mps 749 mmHg 54%
    20:00 -4°C° 0 mm 5 mps 749 mmHg 55%
    21:00 -4°C° 0 mm 5 mps 749 mmHg 57%
    22:00 -4°C° 0 mm 5 mps 749 mmHg 58%
    23:00 -5°C° 0 mm 5 mps 749 mmHg 58%

    Day after tomorrow, 23 February, Friday

    Time Temperature Precipitation Wind Pressure Humidity
    00:00 -5°C° 0 mm 5 mps 749 mmHg 58%
    01:00 -5°C° 0 mm 5 mps 749 mmHg 58%
    02:00 -5°C° 0 mm 5 mps 748 mmHg 58%
    03:00 -4°C° 0 mm 4 mps 748 mmHg 58%
    04:00 -4°C° 0 mm 4 mps 748 mmHg 57%
    05:00 -6°C° 0 mm 5 mps 748 mmHg 57%
    06:00 -6°C° 0 mm 5 mps 748 mmHg 56%
    07:00 -6°C° 0 mm 5 mps 748 mmHg 55%
    08:00 -5°C° 0 mm 5 mps 748 mmHg 51%
    09:00 -4°C° 0 mm 5 mps 748 mmHg 46%
    10:00 -4°C° 0 mm 5 mps 749 mmHg 42%
    11:00 -2°C° 0 mm 5 mps 748 mmHg 38%
    12:00 -1°C° 0 mm 5 mps 748 mmHg 35%
    13:00 0°C° 0 mm 5 mps 748 mmHg 31%
    14:00 0°C° 0 mm 5 mps 748 mmHg 32%
    15:00 +1°C° 0 mm 6 mps 748 mmHg 32%
    16:00 +1°C° 0 mm 6 mps 747 mmHg 33%
    17:00 0°C° 0 mm 5 mps 748 mmHg 36%
    18:00 -1°C° 0 mm 5 mps 748 mmHg 39%
    19:00 -2°C° 0 mm 5 mps 748 mmHg 42%
    20:00 -2°C° 0 mm 5 mps 748 mmHg 43%
    21:00 -4°C° 0 mm 5 mps 748 mmHg 44%
    22:00 -4°C° 0 mm 5 mps 748 mmHg 45%
    23:00 -4°C° 0 mm 5 mps 748 mmHg 46%

    24 February, Saturday

    Time Temperature Precipitation Wind Pressure Humidity
    00:00 -4°C° 0 mm 5 mps 748 mmHg 46%
    01:00 -5°C° 0 mm 5 mps 748 mmHg 47%
    02:00 -5°C° 0 mm 5 mps 748 mmHg 46%
    03:00 -5°C° 0 mm 5 mps 748 mmHg 45%
    04:00 -5°C° 0 mm 5 mps 748 mmHg 44%
    05:00 -5°C° 0 mm 5 mps 748 mmHg 42%
    06:00 -5°C° 0 mm 5 mps 749 mmHg 39%
    07:00 -5°C° 0 mm 5 mps 749 mmHg 37%
    08:00 -4°C° 0 mm 5 mps 749 mmHg 34%
    09:00 -3°C° 0 mm 6 mps 749 mmHg 31%
    10:00 -2°C° 0 mm 6 mps 750 mmHg 28%
    11:00 -1°C° 0 mm 6 mps 749 mmHg 28%
    12:00 0°C° 0 mm 7 mps 749 mmHg 27%
    13:00 +2°C° 0 mm 7 mps 749 mmHg 27%
    14:00 +2°C° 0 mm 7 mps 749 mmHg 30%
    15:00 +2°C° 0 mm 7 mps 749 mmHg 33%
    16:00 +2°C° 0 mm 7 mps 749 mmHg 36%
    17:00 -1°C° 0 mm 7 mps 749 mmHg 38%
    18:00 -2°C° 0 mm 6 mps 750 mmHg 39%
    19:00 -3°C° 0 mm 6 mps 750 mmHg 40%
    20:00 -4°C° 0 mm 6 mps 750 mmHg 38%
    21:00 -4°C° 0 mm 6 mps 751 mmHg 37%
    22:00 -5°C° 0 mm 6 mps 751 mmHg 35%
    23:00 -5°C° 0 mm 6 mps 751 mmHg 34%

    25 February, Sunday

    Time Temperature Precipitation Wind Pressure Humidity
    00:00 -6°C° 0 mm 6 mps 751 mmHg 33%
    01:00 -6°C° 0 mm 6 mps 751 mmHg 32%
    02:00 -6°C° 0 mm 6 mps 751 mmHg 32%
    03:00 -8°C° 0 mm 6 mps 751 mmHg 32%
    04:00 -8°C° 0 mm 6 mps 751 mmHg 31%
    05:00 -8°C° 0 mm 6 mps 752 mmHg 32%
    06:00 -9°C° 0 mm 6 mps 752 mmHg 33%
    07:00 -9°C° 0 mm 6 mps 752 mmHg 34%
    08:00 -9°C° 0 mm 6 mps 752 mmHg 33%
    09:00 -8°C° 0 mm 6 mps 753 mmHg 32%
    10:00 -8°C° 0 mm 6 mps 753 mmHg 32%
    11:00 -6°C° 0 mm 6 mps 753 mmHg 30%
    12:00 -5°C° 0 mm 6 mps 753 mmHg 28%
    13:00 -4°C° 0 mm 6 mps 752 mmHg 26%
    14:00 -4°C° 0 mm 6 mps 752 mmHg 26%
    15:00 -4°C° 0 mm 6 mps 752 mmHg 26%
    16:00 -4°C° 0 mm 6 mps 752 mmHg 25%
    17:00 -5°C° 0 mm 5 mps 752 mmHg 28%
    18:00 -6°C° 0 mm 5 mps 752 mmHg 30%
    19:00 -6°C° 0 mm 5 mps 752 mmHg 32%
    20:00 -7°C° 0 mm 5 mps 752 mmHg 33%
    21:00 -7°C° 0 mm 5 mps 752 mmHg 34%
    22:00 -8°C° 0 mm 5 mps 753 mmHg 35%
    23:00 -8°C° 0 mm 5 mps 753 mmHg 36%

    26 February, Monday

    Time Temperature Precipitation Wind Pressure Humidity
    00:00 -8°C° 0 mm 5 mps 752 mmHg 36%
    01:00 -8°C° 0 mm 5 mps 752 mmHg 37%
    02:00 -10°C° 0 mm 5 mps 752 mmHg 38%
    03:00 -10°C° 0 mm 5 mps 752 mmHg 38%
    04:00 -9°C° 0 mm 4 mps 752 mmHg 38%
    05:00 -10°C° 0 mm 4 mps 752 mmHg 39%
    06:00 -10°C° 0 mm 4 mps 752 mmHg 40%
    07:00 -10°C° 0 mm 4 mps 752 mmHg 40%
    08:00 -11°C° 0 mm 5 mps 752 mmHg 38%
    09:00 -10°C° 0 mm 5 mps 752 mmHg 36%
    10:00 -10°C° 0 mm 5 mps 752 mmHg 35%
    11:00 -8°C° 0 mm 5 mps 752 mmHg 32%
    12:00 -7°C° 0 mm 5 mps 751 mmHg 30%
    13:00 -6°C° 0 mm 5 mps 751 mmHg 27%
    14:00 -6°C° 0 mm 5 mps 751 mmHg 27%
    15:00 -6°C° 0 mm 5 mps 750 mmHg 27%
    16:00 -6°C° 0 mm 5 mps 750 mmHg 27%
    17:00 -6°C° 0 mm 5 mps 750 mmHg 29%
    18:00 -7°C° 0 mm 4 mps 750 mmHg 32%
    19:00 -8°C° 0 mm 4 mps 750 mmHg 34%
    20:00 -8°C° 0 mm 4 mps 750 mmHg 35%
    21:00 -8°C° 0 mm 4 mps 750 mmHg 36%
    22:00 -9°C° 0 mm 4 mps 750 mmHg 38%
    23:00 -9°C° 0 mm 4 mps 749 mmHg 39%
    Show more